Weather History for Puyallup, WA

Change the Weather History Date:

Wednesday, January 1, 2014

  Actual Average (KTCM) Record (KTCM)
Temperature  
Mean Temperature 39 °F -  
Max Temperature 41 °F 44 °F 55 °F (2012)
Min Temperature 37 °F 32 °F 6 °F (1979)
Degree Days  
Heating Degree Days 26    
Moisture  
Dew Point 39 °F    
Average Humidity 100    
Maximum Humidity 100    
Minimum Humidity 100    
Precipitation  
Precipitation 0.00 in - - ()
Sea Level Pressure  
Sea Level Pressure 30.35 in    
Wind  
Wind Speed 0 mph (North)    
Max Wind Speed 0 mph    
Max Gust Speed -    
Visibility 3 miles    
Events Fog , Rain    
Averages and records for this station are not official NWS values.
T = Trace of Precipitation, MM = Missing Value Source: NWS Daily Summary

Daily Weather History Graph

Daily Weather History Graph

Search for Another Location

Airport:

Trip Planner

Search our weather history database for the weather conditions in past years. The results will help you decide how hot, cold, wet, or windy it might be!

Date:

Astronomy

Jan. 01, 2014 Rise Set
Actual Time 7:55 AM PST 4:30 PM PST
Civil Twilight 7:20 AM PST 5:05 PM PST
Nautical Twilight 6:41 AM PST 5:44 PM PST
Astronomical Twilight 6:04 AM PST 6:21 PM PST
Moon 7:45 AM PST (1/1) 5:27 PM PST (1/1)
Length of Visible Light 9h 45m
Length of Day
8h 35m
New Moon, 0% of the Moon is Illuminated
Jan 1
New Moon
Jan 7
First Quarter
Jan 15
Full
Jan 23
Last Quarter
Jan 30
New

Hourly Weather History & Observations

Time (PST) Temp. Dew Point Humidity Pressure Visibility Wind Dir Wind Speed Gust Speed Precip Events Conditions
12:15 AM 41.0 °F 41.0 °F 100% 30.37 in 1.2 mi Calm Calm - N/A   Mist
12:35 AM 41.0 °F 41.0 °F 100% 30.37 in 1.0 mi Calm Calm - N/A   Mist
12:55 AM 41.0 °F 41.0 °F 100% 30.39 in 0.2 mi Calm Calm - N/A Fog Fog
1:15 AM 41.0 °F 41.0 °F 100% 30.39 in 0.2 mi Calm Calm - N/A Fog Fog
1:35 AM 41.0 °F 41.0 °F 100% 30.40 in 0.2 mi Calm Calm - N/A Fog Fog
1:55 AM 41.0 °F 41.0 °F 100% 30.40 in 0.2 mi Calm Calm - N/A Fog Fog
2:15 AM 41.0 °F 41.0 °F 100% 30.39 in 0.2 mi Calm Calm - N/A Fog Fog
2:35 AM 41.0 °F 41.0 °F 100% 30.39 in 0.2 mi Calm Calm - N/A Fog Fog
2:55 AM 41.0 °F 41.0 °F 100% 30.39 in 0.2 mi Calm Calm - N/A Fog Fog
3:15 AM 41.0 °F 41.0 °F 100% 30.39 in 0.2 mi Calm Calm - N/A Fog Fog
3:35 AM 37.4 °F 37.4 °F 100% 30.39 in 0.2 mi Calm Calm - N/A Fog Fog
3:55 AM 37.4 °F 37.4 °F 100% 30.39 in 0.2 mi Calm Calm - N/A Fog Fog
4:15 AM 37.4 °F 37.4 °F 100% 30.39 in 0.2 mi Calm Calm - N/A Fog Fog
4:35 AM 37.4 °F 37.4 °F 100% 30.38 in 0.2 mi Calm Calm - N/A Fog Fog
4:55 AM 37.4 °F 37.4 °F 100% 30.38 in 0.2 mi Calm Calm - N/A Fog Fog
5:15 AM 37.4 °F 37.4 °F 100% 30.39 in 0.2 mi Calm Calm - N/A Fog Fog
5:35 AM 37.4 °F 37.4 °F 100% 30.37 in 0.2 mi Calm Calm - N/A Fog Fog
5:55 AM 39.2 °F 39.2 °F 100% 30.37 in 0.2 mi Calm Calm - N/A Fog Fog
6:15 AM 39.2 °F 39.2 °F 100% 30.37 in 0.2 mi Calm Calm - N/A Fog Fog
6:35 AM 39.2 °F 39.2 °F 100% 30.37 in 0.2 mi Calm Calm - N/A Fog Fog
6:55 AM 37.4 °F 37.4 °F 100% 30.37 in 0.2 mi Calm Calm - N/A Fog Fog
7:15 AM 37.4 °F 37.4 °F 100% 30.37 in 0.2 mi Calm Calm - N/A Fog Fog
7:35 AM 37.4 °F 37.4 °F 100% 30.38 in 0.2 mi Calm Calm - N/A Fog Fog
7:55 AM 37.4 °F 37.4 °F 100% 30.38 in 0.2 mi Calm Calm - N/A Fog Fog
8:15 AM 37.4 °F 37.4 °F 100% 30.38 in 0.2 mi Calm Calm - N/A Fog Fog
8:35 AM 37.4 °F 37.4 °F 100% 30.39 in 0.2 mi Calm Calm - N/A Fog Fog
8:55 AM 37.4 °F 37.4 °F 100% 30.39 in 0.2 mi Calm Calm - N/A Fog Fog
9:15 AM 37.4 °F 37.4 °F 100% 30.39 in 0.2 mi Calm Calm - N/A Fog Fog
9:35 AM 37.4 °F 37.4 °F 100% 30.38 in 0.2 mi Calm Calm - N/A Fog Fog
9:55 AM 37.4 °F 37.4 °F 100% 30.38 in 0.2 mi Calm Calm - N/A Fog Fog
10:15 AM 37.4 °F 37.4 °F 100% 30.38 in 0.2 mi Calm Calm - N/A Fog Fog
10:35 AM 37.4 °F 37.4 °F 100% 30.39 in 0.2 mi Calm Calm - N/A Fog Fog
10:55 AM 37.4 °F 37.4 °F 100% 30.38 in 0.2 mi Calm Calm - N/A Fog Fog
11:15 AM 37.4 °F 37.4 °F 100% 30.38 in 0.5 mi Calm Calm - N/A Fog Fog
11:35 AM 39.2 °F 39.2 °F 100% 30.37 in 1.0 mi Calm Calm - N/A   Mist
11:55 AM 39.2 °F 39.2 °F 100% 30.36 in 2.5 mi Calm Calm - N/A   Mist
12:15 PM 39.2 °F 39.2 °F 100% 30.36 in 2.5 mi Calm Calm - N/A   Mist
12:35 PM 39.2 °F 39.2 °F 100% 30.35 in 3.0 mi Calm Calm - N/A   Mist
12:55 PM 39.2 °F 39.2 °F 100% 30.34 in 7.0 mi Calm Calm - N/A   Unknown
1:15 PM 39.2 °F 39.2 °F 100% 30.34 in 10.0 mi Calm Calm - N/A   Unknown
1:35 PM 41.0 °F 41.0 °F 100% 30.33 in 10.0 mi Calm Calm - N/A   Unknown
1:55 PM 41.0 °F 41.0 °F 100% 30.33 in 10.0 mi Calm Calm - N/A   Unknown
2:15 PM 41.0 °F 41.0 °F 100% 30.33 in 10.0 mi Calm Calm - N/A   Unknown
2:35 PM 41.0 °F 41.0 °F 100% 30.32 in 10.0 mi Calm Calm - N/A   Unknown
2:55 PM 41.0 °F 41.0 °F 100% 30.32 in 10.0 mi Calm Calm - N/A   Unknown
3:15 PM 41.0 °F 41.0 °F 100% 30.33 in 9.0 mi Calm Calm - N/A   Unknown
3:35 PM 41.0 °F 41.0 °F 100% 30.33 in 7.0 mi Calm Calm - N/A   Unknown
3:55 PM 41.0 °F 41.0 °F 100% 30.34 in 7.0 mi Calm Calm - N/A   Unknown
4:15 PM 41.0 °F 41.0 °F 100% 30.34 in 5.0 mi Calm Calm - N/A   Mist
4:35 PM 39.2 °F 39.2 °F 100% 30.35 in 4.0 mi Calm Calm - N/A   Mist
4:55 PM 39.2 °F 39.2 °F 100% 30.35 in 5.0 mi Calm Calm - N/A   Mist
5:15 PM 39.2 °F 39.2 °F 100% 30.34 in 2.5 mi Calm Calm - N/A   Mist
5:35 PM 39.2 °F 39.2 °F 100% 30.34 in 1.0 mi Calm Calm - N/A   Mist
5:55 PM 39.2 °F 39.2 °F 100% 30.35 in 4.0 mi Calm Calm - N/A Rain Light Rain
6:15 PM 39.2 °F 39.2 °F 100% 30.34 in 5.0 mi Calm Calm - N/A Rain Light Rain
6:35 PM 39.2 °F 39.2 °F 100% 30.33 in 5.0 mi Calm Calm - N/A Rain Light Rain
6:55 PM 39.2 °F 39.2 °F 100% 30.33 in 6.0 mi Calm Calm - N/A   Mist
7:15 PM 39.2 °F 39.2 °F 100% 30.31 in 5.0 mi Calm Calm - N/A   Mist
7:35 PM 39.2 °F 39.2 °F 100% 30.30 in 5.0 mi Calm Calm - N/A   Mist
7:55 PM 39.2 °F 39.2 °F 100% 30.29 in 5.0 mi Calm Calm - N/A   Mist
8:15 PM 39.2 °F 39.2 °F 100% 30.28 in 5.0 mi Calm Calm - N/A   Mist
8:35 PM 39.2 °F 39.2 °F 100% 30.27 in 5.0 mi Calm Calm - N/A   Mist
8:55 PM 39.2 °F 39.2 °F 100% 30.27 in 3.0 mi Calm Calm - N/A   Mist
9:15 PM 39.2 °F 39.2 °F 100% 30.27 in 2.0 mi Calm Calm - N/A   Mist
9:35 PM 39.2 °F 39.2 °F 100% 30.27 in 1.5 mi Calm Calm - N/A   Mist
9:55 PM 39.2 °F 39.2 °F 100% 30.27 in 1.2 mi Calm Calm - N/A   Mist
10:15 PM 39.2 °F 39.2 °F 100% 30.27 in 1.2 mi Calm Calm - N/A   Mist
10:35 PM 39.2 °F 39.2 °F 100% 30.27 in 1.5 mi Calm Calm - N/A   Mist
10:55 PM 41.0 °F 41.0 °F 100% 30.27 in 1.5 mi Calm Calm - N/A   Mist
11:15 PM 41.0 °F 41.0 °F 100% 30.27 in 1.0 mi Calm Calm - N/A   Mist
11:35 PM 39.2 °F 39.2 °F 100% 30.25 in 0.5 mi Calm Calm - N/A Fog Fog
11:55 PM 39.2 °F 39.2 °F 100% 30.25 in 0.5 mi Calm Calm - N/A Fog Fog